Other Public Products
Issued by NWS Grand Forks, ND

Home | Current Version | Previous Version | Graphics & Text | Print | Product List | Glossary On
Versions: 1 2 3 4 5 6 7 8 9 10 11 12 13 14 15 16 17 18 19 20 21 22 23 24 25 26 27 28 29 30 31 32 33 34 35 36 37 38 39 40 41 42 43 44 45 46 47 48 49 50
000
FPUS83 KFGF 031531
OPUFGF
PRAIRIE TO PINES WEATHER ROUNDUP
NATIONAL WEATHER SERVICE EASTERN NORTH DAKOTA/GRAND FORKS ND
1000 AM CDT TUE MAY 03 2016

 **SATELLITE DATA USED TO AUGMENT SKY COVER AT AUTOMATED STATIONS**
 *****  WEATHER ACROSS EASTERN NORTH DAKOTA  *****

CITY           SKY/WX    TMP DP  RH WIND       PRES   REMARKS
GRAND FORKS    MOSUNNY   63  37  38 N23       29.85S
GRAND FORKS AF SUNNY     64  34  33 N18G25    29.87R
GRAND CITY NWS NOT AVBL
BUXTON           N/A     65  40  38 NW22G35     N/A
DEVILS LAKE    SUNNY     60  33  36 N21       29.94R
FARGO          MOSUNNY   63  41  44 W14       29.87F
WAHPETON ARPT  MOSUNNY   61  41  48 W16       29.90F
$$

 *****  WEATHER ACROSS CENTRAL AND WESTERN NORTH DAKOTA  *****

CITY           SKY/WX    TMP DP  RH WIND       PRES   REMARKS
JAMESTOWN      MOSUNNY   61  42  49 NW14      29.91F
BISMARCK       SUNNY     60  41  49 W7        30.00F
MINOT          SUNNY     66  34  30 NW16      30.00R
MINOT AFB      SUNNY     62  32  32 N15       29.99R
GARRISON         N/A     68  35  29 N22       29.99S
WILLISTON      SUNNY     58  39  49 SW3       30.06S
DICKINSON      SUNNY     61  38  42 NW10      30.05R
HETTINGER      SUNNY     62  37  39 NW9       30.08R
$$

 *****  OTHER OBSERVATIONS NORTHEAST NORTH DAKOTA  *****

CITY           SKY/WX    TMP DP  RH WIND       PRES   REMARKS
WALHALLA       NOT AVBL
LANGDON        FAIR      57  32  38 N18G24    29.93R
CAVALIER       FAIR      57  32  38 N21G26    29.91R
GRAFTON        FAIR      61  34  36 N20G26    29.90R
CANDO            N/A     59  32  36 N16G25    29.97S
FORT TOTTEN      N/A     59  41  51 N6        29.95S
ROLLA          NOT AVBL
RUGBY          FAIR      63  32  31 N16       29.97R
 ***** THE ABOVE OBSERVATIONS ARE NON NWS ARE NOT QUALITY
        CONTROLLED AND MAY MIS-REPORT RAIN FOR SNOW...
$$

 *****  OTHER OBSERVATIONS SOUTHEAST NORTH DAKOTA *****

CITY           SKY/WX    TMP DP  RH WIND       PRES   REMARKS
COOPERSTOWN    NOT AVBL
VALLEY CITY    FAIR      64  43  45 NW17G25   29.91F
OAKES          NOT AVBL
GWINNER        FAIR      61  46  59 W12G18    29.92F
SHEYENNE NWR     N/A     60  44  55 W10       29.95S
BUFFALO          N/A     66  36  33 NW20        N/A
WYNDMERE         N/A     59  45  58 W13         N/A
 ***** THE ABOVE OBSERVATIONS ARE NON NWS ARE NOT QUALITY
       CONTROLLED AND MAY MIS-REPORT RAIN FOR SNOW...
$$

  *****  WEATHER ACROSS NORTHERN MINNESOTA  *****

CITY           SKY/WX    TMP DP  RH WIND       PRES   REMARKS
FLAG ISLAND    SUNNY     54  30  40 N23       29.79R
WARROAD        SUNNY     59  37  44 NW17G28   29.81R
ROSEAU         SUNNY     61  34  36 N18G26    29.81S
HALLOCK        SUNNY     61  28  29 N25       29.87R
THF RVR FALLS  MOSUNNY   61  36  39 NW20G26   29.84R
HALSTAD        NOT AVBL
FOSSTON        CLOUDY    57  37  47 W13G21    29.83S
BAUDETTE       SUNNY     57  35  43 NW17G26   29.77R
WASKISH        MOSUNNY   59  45  58 W8        29.77S
CROOKSTON      SUNNY     64  39  39 N21G28    29.84S
$$
  *****  WEATHER ACROSS CENTRAL AND WEST MINNESOTA  *****

CITY           SKY/WX    TMP DP  RH WIND       PRES   REMARKS
BEMIDJI        CLOUDY    60  37  42 NW20G37   29.79S
PARK RAPIDS    CLOUDY    62  40  44 W22G29    29.83F
WADENA         MOSUNNY   59  43  55 W16       29.86F
DETROIT LAKES  SUNNY     59  43  55 SW12      29.87F
MOORHEAD       MOSUNNY   63  41  45 W13       29.87F
FERGUS FALLS   CLOUDY    57  45  62 W16       29.88F
ELBOW LAKE     FAIR      59  43  54 NW15G24   29.91F
MORRIS MN      MOSUNNY   63  43  48 W16       29.91F
STAPLES        SUNNY     61  39  44 W21G30    29.86F
WHEATON        PTSUNNY   63  46  55 W13       29.93F
$$
  *****  WEATHER ELSEWHERE ACROSS MINNESOTA  *****

CITY           SKY/WX    TMP DP  RH WIND       PRES   REMARKS
DULUTH         CLOUDY    59  33  37 W15       29.76F
INTRNTL FALLS  PTSUNNY   59  39  47 NW10      29.71F
ELY            LGT RAIN  50  43  76 NW7       29.72R
CLOQUET        CLOUDY    61  30  31 W12G25    29.77F
BRAINERD       MOSUNNY   61  38  42 W13G28    29.84F
HIBBING        CLOUDY    55  34  45 W8G17     29.73F
ALEXANDRIA     MOSUNNY   59  41  51 W18       29.92F
SAINT CLOUD    MOSUNNY   61  39  44 W17       29.89F
MINNEAPOLIS    PTSUNNY   59  41  51 W12       29.91F
$$

  *****  WEATHER ACROSS SOUTH DAKOTA  *****

CITY           SKY/WX    TMP DP  RH WIND       PRES   REMARKS
SIOUX FALLS    MOSUNNY   58  45  62 NW12      30.02S
BROOKINGS      SUNNY     57  44  62 W15       29.98F
WATERTOWN      SUNNY     59  45  59 W17       29.96F
HURON          SUNNY     58  46  64 W12       30.01F
SISSETON         N/A     61  45  55 W16G25    29.92F
ABERDEEN       SUNNY     58  46  64 W9        29.98F
MITCHELL       SUNNY     57  48  72 NW7       30.04F
PIERRE         SUNNY     52  44  74 W7        30.04S
MOBRIDGE       MOSUNNY   55  45  68 NW9       30.00S
RAPID CITY     MOSUNNY   60  38  43 NW8       30.11R
$$

  *****  SOME WEATHER IN NEARBY STATES *****

CITY           SKY/WX    TMP DP  RH WIND       PRES   REMARKS
GLASGOW MT     SUNNY     57  44  62 W5        30.09R
GREAT FALLS MT SUNNY     58  38  47 SW12      30.12S
CHEYENNE WY    PTSUNNY   51  31  46 NW13      30.22R
SCOTTSBLUFF NE SUNNY     52  40  63 W7        30.16R
OMAHA NE       SUNNY     59  46  62 CALM      30.06F
DES MOINES IA  MOSUNNY   61  44  53 W7        30.04F
DAVENPORT IA   SUNNY     58  48  69 W9        30.01F
CHICAGO IL     MOSUNNY   59  39  47 W8        29.95F
EAU CLAIRE WI  MOSUNNY   60  40  47 SW10      29.87F
LA CROSSE WI   SUNNY     63  42  46 S7        29.92F
$$

  *****  SOME NATIONAL WEATHER *****

CITY           SKY/WX    TMP DP  RH WIND       PRES   REMARKS
LA GUARDIA NY  LGT RAIN  54  52  94 NE16      29.85F FOG
RALEIGH NC     CLOUDY    68  65  90 SW8       29.84F
ATLANTA GA     PTSUNNY   71  61  70 W15       29.93S
NEW ORLEANS LA CLOUDY    73  67  81 N9        29.97R
OKLAHOMA CITY  MOSUNNY   60  47  61 SW12      30.13R
ALBUQUERQUE NM MOSUNNY   54  37  52 VRB7      30.21S
SALT LAKE CITY SUNNY     56  32  40 SE6       30.25R
LOS ANGELES CA MOSUNNY   62  56  80 CALM      29.98R
BOISE ID       SUNNY     59  34  39 N3        30.15R
SEATTLE WA     CLOUDY    58  51  78 SW3       30.04R
$$

*** WEATHER ACROSS MANITOBA...SASKATCHEWAN AND ONTARIO ***
                ***ONTARIO***

CITY           SKY/WX    TMP DP  RH WIND       PRES   REMARKS
GERALDTON      LGT RAIN  43  43 100 S6        29.59S FOG
THUNDER BAY    PTSUNNY   50  45  81 N3        29.63F
SIOUX LOOKOUT  MOSUNNY   54  36  50 N12G24    29.69R
TORONTO        MOSUNNY   55  39  54 SE8       29.88F
BIG TROUT LK   CLOUDY    36  36 100 N9G21     29.75S
PICKLE LAKE    LGT RAIN  36  32  87 N13G29    29.71R
DRYDEN         SUNNY     55  32  41 N10G18    29.71R
KENORA         MOSUNNY   54  32  43 N16G24    29.78R
$$
                *** MANITOBA***

CITY           SKY/WX    TMP DP  RH WIND       PRES   REMARKS
BRANDON        MOSUNNY   59  32  36 N17G24    30.00R
DAUPHIN        SUNNY     55  32  41 N17G23    30.04R
ISLAND LAKE    CLOUDY    37  30  75 N12G23    29.97R
PILOT MOUND      N/A     55  34  44 N16G23      N/A
THE PAS        SUNNY     45  30  57 N5        30.10S
THOMPSON       SUNNY     41  28  60 NE12      30.07R
WINNIPEG       MOSUNNY   57  32  38 N22       29.91S
LYNN LAKE      SUNNY     43  28  56 N8        30.12R
CHURCHILL      PTSUNNY   25  19  80 N20       30.11R WCI  11
GILLAM         CLOUDY    30  25  80 N17       30.04  WCI  18
$$
                ***SASKATCHEWAN***

CITY           SKY/WX    TMP DP  RH WIND       PRES   REMARKS
ESTEVAN        MOSUNNY   66  37  34 CALM      30.04S
KINDERSLEY     MOSUNNY   64  41  42 SW5       30.05R
LLOYDMINSTER   MOSUNNY   72  43  35 S3        30.01S
PRINCE ALBERT  MOSUNNY   59  36  41 E12       30.07S
REGINA         MOSUNNY   64  36  34 SE6       30.07R
YORKTON        SUNNY     57  30  35 NE8       30.07S  C1F1C2F2C3F3C4F4C5F5C6F6C7F7C8F8C9F9CaFaCbFbCcFcCdFdCe!


USA.gov is the U.S. government's official web portal to all federal, state and local government web resources and services.